[[{"header":{"parameterUnit":"m.s-1","parameterCategory":1,"la1":30.2991,"la2":30.254,"lo1":-89.0895,"lo2":-89.0444,"dy":0.0017,"dx":0.0017,"nx":28,"ny":28,"refTime":"2025-03-13T03:00:00:Z","depth":0,"parameterNumber":2,"parameterNumberName":"U-component_of_WINDS"},"data":[0,0,0,0,0,0,0,0,0,0,0,0,0,0,0,0,0,0,0,0,0,0,0,0,0,0,0,0,0,0,0,0,0,0,0,0,0,0,0,0,0,0,0,0,0,0,0,0,0,0,0,0,0,0,0,0,0,0,0.6829,0.6831,0,0.6979,0.6981,0.6982,0.7036,0.7036,0.7035,0.7035,0.7192,0.7196,0.7201,0,0,0,0,0,0,0,0,0,0,0,0,0,0.6595,0.6599,0.6829,0.6831,0.6833,0.6979,0.6981,0.6983,0.7036,0.7036,0.7035,0.7034,0.719,0.7196,0.7201,0,0,0,0,0,0,0,0,0,0,0,0,0,0.6716,0.66,0.6829,0.6877,0.6883,0.6978,0.6981,0.6983,0.7036,0.7036,0.7035,0.7034,0.7188,0.7195,0.7202,0.7262,0,0,0.7224,0.7227,0,0,0,0,0,0,0,0,0.6709,0.6725,0.6868,0.6874,0.6881,0.6988,0.6956,0.7077,0.7037,0.6978,0.7035,0.7034,0.7125,0.7137,0.7167,0.7269,0.7276,0.7224,0.7229,0.7232,0.7234,0,0,0,0,0,0,0,0.6701,0.6718,0.6889,0.687,0.6878,0.6893,0.6909,0.6979,0.7054,0.6983,0.6988,0.7004,0.7128,0.716,0.7171,0.7278,0.7224,0.723,0.7235,0.7237,0.744,0.7441,0,0,0,0,0,0,0.6684,0.6711,0.6884,0.6893,0.6791,0.6898,0.6916,0.6954,0.7054,0.7068,0.7005,0.7006,0.7149,0.7163,0.7177,0.7255,0.7232,0.7238,0.7242,0.7439,0.744,0.7441,0,0,0,0,0,0,0.6678,0.6698,0.6878,0.6803,0.6827,0.6903,0.6945,0.6958,0.699,0.707,0.7084,0.7023,0.7149,0.7167,0.7241,0.7261,0.7241,0.7248,0.7437,0.7439,0.7441,0.741,0,0,0,0,0,0,0.6671,0.6696,0.6718,0.6803,0.6831,0.6937,0.6947,0.6961,0.7001,0.7005,0.7091,0.7105,0.7149,0.723,0.7248,0.727,0.7253,0.7436,0.7438,0.744,0.7409,0.741,0.7411,0,0,0,0,0,0.6663,0.6704,0.6719,0.6739,0.686,0.6938,0.6954,0.7003,0.7003,0.7026,0.7078,0.7102,0.7256,0.7237,0.7257,0.7282,0.7435,0.7437,0.744,0.7409,0.741,0.7411,0,0,0,0,0,0,0.662,0.6716,0.6734,0.6803,0.6862,0.6947,0.6978,0.7003,0.7064,0.7065,0.7125,0.7144,0.7213,0.7255,0.7233,0.7347,0.7347,0.7354,0.7316,0.7318,0.7319,0.7308,0.7259,0,0,0,0,0,0.6618,0.6672,0.6754,0.6807,0.6836,0.6902,0.6938,0.6971,0.7035,0.706,0.7118,0.718,0.7243,0.7283,0.7345,0.7416,0.7437,0.7444,0.7444,0.7445,0.745,0.7493,0.7498,0.745,0.745,0.745,0,0,0.6615,0.6675,0.6705,0.68,0.685,0.6906,0.6922,0.6981,0.7024,0.707,0.7143,0.7187,0.7261,0.7334,0.7369,0.7372,0.7468,0.7448,0.7448,0.7453,0.7496,0.7501,0.7505,0.7452,0.7451,0.7451,0,0,0.664,0.6689,0.674,0.6789,0.6864,0.6908,0.692,0.7003,0.7034,0.7108,0.7144,0.7197,0.7303,0.7355,0.7395,0.7442,0.7467,0.7461,0.7465,0.7506,0.751,0.7514,0.7532,0.7537,0.7466,0.7466,0.7466,0,0.6627,0.6712,0.6763,0.682,0.6862,0.6906,0.6959,0.7005,0.7097,0.7125,0.7126,0.7262,0.7315,0.7402,0.7413,0.7444,0.7461,0.7451,0.7505,0.7509,0.7514,0.7532,0.7538,0.7464,0.7465,0.7465,0.7465,0,0.6694,0.6753,0.6785,0.6872,0.6918,0.6972,0.7034,0.7074,0.7104,0.7149,0.7225,0.729,0.7367,0.739,0.742,0.7482,0.7481,0.7493,0.7494,0.7516,0.7534,0.7541,0.7463,0.7463,0.7463,0.7464,0,0,0.6693,0.6809,0.682,0.6861,0.6948,0.6995,0.7054,0.7128,0.7162,0.7225,0.7276,0.7366,0.7378,0.7424,0.746,0.7496,0.7532,0.7504,0.7507,0.7508,0.7606,0.7597,0.7604,0.7549,0.755,0.7551,0.7601,0,0.673,0.6834,0.6883,0.6966,0.7022,0.7066,0.7117,0.7177,0.7221,0.7277,0.7326,0.7389,0.7399,0.7427,0.7465,0.7519,0.7552,0.7516,0.7599,0.7601,0.7579,0.7613,0.7604,0.7647,0.7608,0.7609,0.761,0,0.6785,0.6847,0.6936,0.7018,0.7043,0.7088,0.7162,0.7214,0.7284,0.7314,0.7365,0.7401,0.7466,0.7463,0.7556,0.753,0.7567,0.7599,0.7602,0.7612,0.7607,0.7625,0.7662,0.7668,0.7621,0.762,0.762,0,0.6777,0.6883,0.695,0.6984,0.7081,0.7112,0.7154,0.7223,0.7266,0.7331,0.7359,0.7431,0.7471,0.7527,0.7582,0.7574,0.767,0.7671,0.7698,0.7696,0.7716,0.7714,0.7759,0.7739,0.7738,0.7738,0.7738,0,0.6812,0.6865,0.6948,0.6989,0.7051,0.7108,0.7168,0.7214,0.7275,0.7328,0.7371,0.742,0.7489,0.7548,0.7591,0.7662,0.768,0.7707,0.7718,0.7703,0.77,0.7728,0.7727,0.774,0.774,0.7739,0.7739,0,0.6813,0.687,0.6947,0.7033,0.7057,0.7098,0.7173,0.7216,0.7263,0.7329,0.7348,0.7422,0.7494,0.7554,0.7648,0.7678,0.7751,0.7764,0.7727,0.7733,0.7757,0.7754,0.7823,0.7836,0.7805,0.7806,0.7806,0,0.6832,0.6873,0.6965,0.7002,0.7044,0.7104,0.7148,0.7207,0.7251,0.7336,0.7369,0.7443,0.7506,0.7618,0.7681,0.7754,0.777,0.7789,0.7781,0.7766,0.7772,0.7768,0.7774,0.7789,0.7789,0.7789,0.7789,0,0.6859,0.6886,0.6946,0.7018,0.7069,0.7128,0.7189,0.7218,0.7289,0.7336,0.7409,0.7458,0.7554,0.7628,0.7708,0.7754,0.7785,0.7792,0.7802,0.7787,0.7764,0.7778,0.7729,0.779,0.779,0.7789,0.7789,0.7789,0.687,0.691,0.6981,0.7048,0.71,0.7156,0.7201,0.7254,0.7315,0.7398,0.743,0.7505,0.7577,0.7687,0.7734,0.7795,0.7799,0.7814,0.7818,0.782,0.7819,0.7754,0.781,0.781,0.781,0.781,0.781,0,0.69,0.6949,0.7009,0.7093,0.7146,0.7169,0.7239,0.7282,0.7347,0.7411,0.7472,0.7558,0.763,0.77,0.7777,0.7813,0.7829,0.7831,0.7829,0.784,0.781,0.7794,0.7817,0.7817,0.7817,0.7817,0.7817,0.7817,0.6922,0.6991,0.7027,0.7124,0.7173,0.7245,0.7283,0.7336,0.7388,0.7481,0.7541,0.7586,0.7654,0.7736,0.7805,0.7824,0.785,0.7849,0.7872,0.7843,0.7841,0.784,0.7825,0.7854,0.7854,0.7896,0.7897,0.7897]},{"header":{"parameterUnit":"m.s-1","parameterCategory":1,"la1":30.2991,"la2":30.254,"lo1":-89.0895,"lo2":-89.0444,"dy":0.0017,"dx":0.0017,"nx":28,"ny":28,"refTime":"2025-03-13T03:00:00:Z","depth":0,"parameterNumber":3,"parameterNumberName":"V-component_of_WINDS"},"data":[0,0,0,0,0,0,0,0,0,0,0,0,0,0,0,0,0,0,0,0,0,0,0,0,0,0,0,0,0,0,0,0,0,0,0,0,0,0,0,0,0,0,0,0,0,0,0,0,0,0,0,0,0,0,0,0,0,0,1.8762,1.8762,0,1.8835,1.8835,1.8836,1.8863,1.8863,1.8863,1.8862,1.8938,1.894,1.8942,0,0,0,0,0,0,0,0,0,0,0,0,0,1.8646,1.8648,1.8761,1.8762,1.8763,1.8834,1.8835,1.8836,1.8863,1.8863,1.8863,1.8862,1.8937,1.8939,1.8942,0,0,0,0,0,0,0,0,0,0,0,0,0,1.8705,1.8649,1.8761,1.8785,1.8788,1.8834,1.8835,1.8837,1.8863,1.8863,1.8862,1.8862,1.8936,1.8939,1.8942,1.897,0,0,1.8953,1.8954,0,0,0,0,0,0,0,0,1.8702,1.871,1.8781,1.8784,1.8787,1.8839,1.8822,1.8881,1.8863,1.8835,1.8862,1.8862,1.8905,1.8911,1.8926,1.8974,1.8977,1.8953,1.8955,1.8956,1.8957,0,0,0,0,0,0,0,1.8698,1.8707,1.879,1.8782,1.8786,1.8793,1.8801,1.8834,1.8871,1.8837,1.8839,1.8848,1.8907,1.8922,1.8927,1.8978,1.8953,1.8956,1.8958,1.8959,1.9055,1.9055,0,0,0,0,0,0,1.869,1.8703,1.8788,1.8793,1.8743,1.8795,1.8804,1.8823,1.8871,1.8878,1.8848,1.8849,1.8917,1.8924,1.893,1.8967,1.8956,1.8959,1.8961,1.9054,1.9055,1.9055,0,0,0,0,0,0,1.8687,1.8697,1.8785,1.8748,1.876,1.8797,1.8818,1.8825,1.884,1.8879,1.8886,1.8857,1.8917,1.8926,1.896,1.897,1.8961,1.8964,1.9053,1.9054,1.9055,1.904,0,0,0,0,0,0,1.8684,1.8696,1.8707,1.8748,1.8762,1.8814,1.8819,1.8826,1.8846,1.8847,1.8889,1.8896,1.8917,1.8955,1.8964,1.8975,1.8967,1.9053,1.9054,1.9055,1.904,1.9041,1.9041,0,0,0,0,0,1.8679,1.8699,1.8707,1.8717,1.8776,1.8814,1.8822,1.8846,1.8846,1.8858,1.8883,1.8894,1.8967,1.8959,1.8968,1.898,1.9052,1.9053,1.9055,1.904,1.9041,1.9041,0,0,0,0,0,0,1.8657,1.8705,1.8714,1.8748,1.8777,1.8819,1.8834,1.8846,1.8875,1.8876,1.8905,1.8914,1.8947,1.8967,1.8956,1.9011,1.9011,1.9014,1.8996,1.8997,1.8997,1.8992,1.8969,0,0,0,0,0,1.8656,1.8683,1.8724,1.875,1.8764,1.8796,1.8814,1.883,1.8861,1.8873,1.8901,1.8931,1.8961,1.898,1.9009,1.9043,1.9053,1.9056,1.9056,1.9057,1.9059,1.908,1.9082,1.9059,1.9059,1.9059,0,0,1.8655,1.8684,1.8699,1.8746,1.877,1.8798,1.8806,1.8835,1.8856,1.8878,1.8913,1.8934,1.8969,1.9004,1.9021,1.9022,1.9068,1.9058,1.9058,1.9061,1.9081,1.9084,1.9086,1.906,1.906,1.906,0,0,1.8666,1.869,1.8715,1.874,1.8777,1.8798,1.8804,1.8845,1.886,1.8895,1.8913,1.8938,1.8989,1.9014,1.9033,1.9055,1.9067,1.9064,1.9066,1.9086,1.9088,1.9089,1.9098,1.9101,1.9066,1.9066,1.9066,0,1.8659,1.8701,1.8727,1.8755,1.8775,1.8797,1.8823,1.8845,1.889,1.8904,1.8904,1.8969,1.8994,1.9036,1.9041,1.9056,1.9064,1.9059,1.9085,1.9087,1.9089,1.9098,1.9101,1.9065,1.9065,1.9066,1.9066,0,1.8692,1.8721,1.8737,1.878,1.8802,1.8829,1.8859,1.8878,1.8893,1.8915,1.8951,1.8982,1.9019,1.903,1.9044,1.9074,1.9074,1.9079,1.908,1.909,1.91,1.9103,1.9065,1.9065,1.9065,1.9065,0,0,1.8691,1.8748,1.8754,1.8774,1.8817,1.884,1.8868,1.8905,1.8921,1.8951,1.8977,1.9019,1.9025,1.9047,1.9064,1.9081,1.9099,1.9085,1.9086,1.9088,1.9135,1.9131,1.9135,1.9106,1.9107,1.9108,1.9132,0,1.8709,1.876,1.8785,1.8825,1.8853,1.8875,1.8899,1.8929,1.895,1.8977,1.9,1.9031,1.9035,1.9049,1.9067,1.9093,1.9109,1.9091,1.9131,1.9132,1.9123,1.9139,1.9135,1.9157,1.9136,1.9136,1.9137,0,1.8736,1.8767,1.8811,1.8851,1.8864,1.8886,1.8922,1.8947,1.8981,1.8995,1.902,1.9037,1.9069,1.9067,1.9111,1.9098,1.9116,1.9132,1.9133,1.9138,1.9136,1.9146,1.9164,1.9168,1.9142,1.9142,1.9142,0,1.8733,1.8785,1.8818,1.8835,1.8883,1.8898,1.8919,1.8952,1.8973,1.9004,1.9018,1.9053,1.9072,1.9098,1.9124,1.912,1.9167,1.9167,1.918,1.918,1.919,1.9189,1.9212,1.9199,1.9199,1.9199,1.9199,0,1.875,1.8777,1.8818,1.8838,1.8869,1.8896,1.8926,1.8948,1.8978,1.9004,1.9024,1.9048,1.9081,1.9109,1.9129,1.9164,1.9172,1.9185,1.919,1.9184,1.9182,1.9197,1.9196,1.92,1.92,1.92,1.9199,0,1.8752,1.878,1.8818,1.8861,1.8872,1.8893,1.8929,1.8951,1.8973,1.9006,1.9015,1.905,1.9085,1.9113,1.9158,1.9172,1.9208,1.9214,1.9197,1.92,1.9213,1.9211,1.9246,1.9253,1.9235,1.9235,1.9235,0,1.8761,1.8782,1.8827,1.8846,1.8867,1.8897,1.8918,1.8947,1.8969,1.9009,1.9026,1.9062,1.9092,1.9146,1.9176,1.9211,1.9219,1.9228,1.9224,1.9217,1.922,1.9219,1.9222,1.9229,1.9229,1.9229,1.9229,0,1.8776,1.879,1.882,1.8855,1.8881,1.891,1.894,1.8954,1.8988,1.9012,1.9047,1.9071,1.9117,1.9153,1.9191,1.9213,1.9227,1.923,1.9236,1.923,1.922,1.9227,1.9199,1.923,1.9229,1.9229,1.9229,1.9229,1.8783,1.8803,1.8839,1.8872,1.8898,1.8925,1.8948,1.8974,1.9004,1.9044,1.9059,1.9096,1.913,1.9183,1.9206,1.9235,1.9237,1.9244,1.9246,1.9248,1.9248,1.9214,1.9242,1.9242,1.9242,1.9242,1.9242,0,1.88,1.8824,1.8855,1.8896,1.8923,1.8934,1.8968,1.8989,1.9021,1.9053,1.9082,1.9124,1.9159,1.9192,1.9229,1.9247,1.9254,1.9256,1.9255,1.926,1.9243,1.9236,1.9249,1.9249,1.9249,1.9249,1.9249,1.9249,1.8812,1.8847,1.8865,1.8913,1.8937,1.8974,1.8993,1.9019,1.9044,1.909,1.9119,1.914,1.9173,1.9213,1.9246,1.9255,1.9268,1.9268,1.9279,1.9262,1.9261,1.926,1.9253,1.927,1.927,1.9293,1.9293,1.9294]}]]